| time (UTC) | temp F | wind direction | speed knots | gust knots | rain 1hr in | rain 24hr in | rain mn in | humidity % | barometer mb |
| 20260507003054 | 64 | 313 | 0.0 | 6.1 | 0.00 | 0.01 | 0.01 | 64 | 1016.8 |
| 20260507001602 | 64 | 310 | 0.0 | 0.9 | 0.00 | 0.01 | 0.01 | 63 | 1016.8 |
| 20260507000053 | 65 | 294 | 0.0 | 5.2 | 0.00 | 0.01 | 0.01 | 62 | 1016.8 |
| 20260506234553 | 65 | 314 | 0.0 | 7.0 | 0.00 | 0.01 | 0.01 | 60 | 1016.7 |
| 20260506233109 | 65 | 311 | 0.0 | 7.8 | 0.00 | 0.01 | 0.01 | 60 | 1016.7 |
| 20260506231551 | 66 | 286 | 0.0 | 7.0 | 0.00 | 0.01 | 0.01 | 59 | 1016.7 |
| 20260506230051 | 66 | 280 | 0.0 | 7.8 | 0.00 | 0.01 | 0.01 | 56 | 1016.8 |
| 20260506224550 | 67 | 288 | 0.0 | 8.7 | 0.00 | 0.01 | 0.01 | 55 | 1016.8 |
| 20260506223048 | 67 | 339 | 0.0 | 5.2 | 0.00 | 0.01 | 0.01 | 52 | 1016.9 |
| 20260506221547 | 68 | 279 | 0.0 | 10.4 | 0.00 | 0.01 | 0.01 | 50 | 1017.1 |
| 20260506220046 | 68 | 297 | 0.0 | 4.3 | 0.00 | 0.01 | 0.01 | 49 | 1017.2 |
| 20260506214545 | 69 | 248 | 0.0 | 6.1 | 0.00 | 0.01 | 0.01 | 49 | 1017.4 |
| 20260506213055 | 69 | 302 | 0.9 | 11.3 | 0.00 | 0.01 | 0.01 | 48 | 1017.4 |
| 20260506211544 | 70 | 309 | 0.0 | 1.7 | 0.00 | 0.01 | 0.01 | 48 | 1017.8 |
| 20260506210042 | 69 | 292 | 0.0 | 8.7 | 0.00 | 0.01 | 0.01 | 51 | 1017.9 |
| 20260506204547 | 69 | 273 | 0.0 | 4.3 | 0.00 | 0.01 | 0.01 | 50 | 1017.9 |
| 20260506203040 | 69 | 323 | 0.0 | 7.0 | 0.00 | 0.01 | 0.01 | 50 | 1018.1 |
| 20260506201538 | 68 | 326 | 0.0 | 4.3 | 0.00 | 0.01 | 0.01 | 50 | 1018.1 |
| 20260506200035 | 67 | 315 | 0.0 | 1.7 | 0.00 | 0.01 | 0.01 | 52 | 1018.4 |
| 20260506194537 | 67 | 284 | 0.0 | 6.1 | 0.00 | 0.01 | 0.01 | 53 | 1018.6 |
| 20260506193034 | 67 | 250 | 0.0 | 0.9 | 0.00 | 0.01 | 0.01 | 53 | 1018.7 |
| 20260506191532 | 67 | 328 | 0.0 | 7.8 | 0.00 | 0.01 | 0.01 | 52 | 1018.8 |
| 20260506190031 | 67 | 327 | 0.0 | 7.8 | 0.00 | 0.01 | 0.01 | 55 | 1018.9 |
| 20260506184529 | 66 | 313 | 0.0 | 7.8 | 0.00 | 0.01 | 0.01 | 53 | 1018.9 |
| 20260506183026 | 65 | 284 | 0.0 | 5.2 | 0.00 | 0.01 | 0.01 | 55 | 1018.9 |
| 20260506181521 | 63 | 306 | 0.0 | 8.7 | 0.00 | 0.01 | 0.01 | 59 | 1019.1 |
| 20260506180017 | 62 | 279 | 0.0 | 0.0 | 0.00 | 0.01 | 0.01 | 61 | 1019.2 |
| 20260506174515 | 61 | 321 | 0.0 | 8.7 | 0.00 | 0.03 | 0.01 | 63 | 1019.1 |
| 20260506173013 | 61 | 332 | 0.0 | 9.6 | 0.00 | 0.03 | 0.01 | 64 | 1019.3 |
| 20260506171511 | 60 | 303 | 0.0 | 7.8 | 0.00 | 0.03 | 0.01 | 66 | 1019.2 |
| 20260506170005 | 59 | 313 | 0.0 | 5.2 | 0.00 | 0.03 | 0.01 | 68 | 1019.1 |
| 20260506164500 | 57 | 300 | 0.0 | 0.0 | 0.00 | 0.04 | 0.01 | 72 | 1018.9 |
| 20260506163116 | 54 | 304 | 0.0 | 0.0 | 0.00 | 0.04 | 0.01 | 80 | 1019.0 |
| 20260506161552 | 51 | 306 | 0.0 | 0.0 | 0.00 | 0.04 | 0.01 | 89 | 1019.0 |
| 20260506160048 | 49 | 307 | 0.0 | 0.0 | 0.00 | 0.04 | 0.01 | 96 | 1019.0 |
| 20260506154605 | 47 | 308 | 0.0 | 0.0 | 0.00 | 0.08 | 0.01 | 96 | 1019.1 |
| 20260506153049 | 44 | 308 | 0.0 | 0.0 | 0.00 | 0.08 | 0.01 | 96 | 1019.2 |
| 20260506151535 | 42 | 308 | 0.0 | 0.0 | 0.00 | 0.08 | 0.01 | 95 | 1019.1 |
| 20260506150033 | 40 | 308 | 0.0 | 0.0 | 0.00 | 0.08 | 0.01 | 95 | 1019.0 |
| 20260506144531 | 40 | 308 | 0.0 | 0.0 | 0.00 | 0.10 | 0.01 | 94 | 1019.0 |
| 20260506143040 | 39 | 308 | 0.0 | 0.0 | 0.00 | 0.10 | 0.01 | 94 | 1018.9 |
| 20260506141532 | 38 | 308 | 0.0 | 0.0 | 0.00 | 0.10 | 0.01 | 93 | 1018.8 |
| 20260506140028 | 37 | 308 | 0.0 | 0.0 | 0.00 | 0.10 | 0.01 | 93 | 1019.0 |
| 20260506134526 | 37 | 308 | 0.0 | 0.0 | 0.00 | 0.16 | 0.01 | 92 | 1018.7 |
| 20260506133026 | 37 | 308 | 0.0 | 0.0 | 0.00 | 0.16 | 0.01 | 92 | 1018.6 |
| 20260506131524 | 37 | 308 | 0.0 | 0.0 | 0.00 | 0.16 | 0.01 | 92 | 1018.4 |
| 20260506130022 | 37 | 308 | 0.0 | 0.0 | 0.01 | 0.16 | 0.01 | 92 | 1018.0 |
| 20260506124520 | 37 | 308 | 0.0 | 0.0 | 0.01 | 0.23 | 0.01 | 92 | 1017.8 |
| 20260506123020 | 37 | 308 | 0.0 | 0.0 | 0.01 | 0.23 | 0.01 | 92 | 1017.8 |
| 20260506121519 | 37 | 308 | 0.0 | 0.0 | 0.01 | 0.23 | 0.01 | 92 | 1017.8 |
| 20260506120017 | 37 | 308 | 0.0 | 0.0 | 0.00 | 0.22 | 0.00 | 92 | 1017.7 |
| 20260506114517 | 37 | 308 | 0.0 | 0.0 | 0.00 | 0.26 | 0.00 | 92 | 1017.8 |
| 20260506113016 | 38 | 308 | 0.0 | 0.0 | 0.00 | 0.26 | 0.00 | 92 | 1017.8 |
| 20260506111514 | 37 | 308 | 0.0 | 0.0 | 0.00 | 0.26 | 0.00 | 92 | 1017.6 |
| 20260506110014 | 37 | 308 | 0.0 | 0.0 | 0.00 | 0.26 | 0.00 | 92 | 1017.5 |
| 20260506104512 | 37 | 308 | 0.0 | 0.0 | 0.00 | 0.30 | 0.00 | 91 | 1017.6 |
| 20260506103011 | 37 | 308 | 0.0 | 0.0 | 0.00 | 0.30 | 0.00 | 91 | 1017.5 |
| 20260506101510 | 37 | 308 | 0.0 | 0.0 | 0.00 | 0.30 | 0.00 | 90 | 1017.3 |
| 20260506100008 | 37 | 308 | 0.0 | 0.0 | 0.00 | 0.30 | 0.00 | 90 | 1017.3 |
| 20260506094506 | 37 | 308 | 0.0 | 0.0 | 0.00 | 0.36 | 0.00 | 90 | 1017.3 |
| 20260506093005 | 38 | 308 | 0.0 | 0.0 | 0.00 | 0.36 | 0.00 | 90 | 1017.3 |
| 20260506091501 | 39 | 308 | 0.0 | 0.0 | 0.00 | 0.36 | 0.00 | 90 | 1017.3 |
| 20260506090058 | 39 | 308 | 0.0 | 0.0 | 0.00 | 0.36 | 0.00 | 90 | 1017.5 |
| 20260506084557 | 39 | 308 | 0.0 | 0.0 | 0.00 | 0.37 | 0.00 | 90 | 1017.7 |
| 20260506083103 | 39 | 308 | 0.0 | 0.0 | 0.00 | 0.37 | 0.00 | 91 | 1017.9 |
| 20260506081553 | 39 | 308 | 0.0 | 0.0 | 0.00 | 0.37 | 0.00 | 90 | 1018.1 |
| 20260506073049 | 40 | 308 | 0.0 | 0.0 | 0.00 | 0.37 | 0.00 | 89 | 1018.3 |
| 20260506071546 | 40 | 308 | 0.0 | 0.0 | 0.00 | 0.37 | 0.00 | 89 | 1018.4 |
| 20260506061538 | 42 | 308 | 0.0 | 0.0 | 0.00 | 0.37 | 0.37 | 89 | 1018.1 |
| 20260506044542 | 44 | 306 | 0.0 | 4.3 | 0.00 | 0.38 | 0.37 | 89 | 1017.7 |
| 20260506043031 | 44 | 303 | 0.0 | 4.3 | 0.00 | 0.38 | 0.37 | 89 | 1017.5 |
| 20260506041529 | 44 | 302 | 0.0 | 1.7 | 0.00 | 0.38 | 0.37 | 89 | 1017.2 |
| 20260506040049 | 44 | 302 | 0.0 | 0.0 | 0.00 | 0.38 | 0.37 | 88 | 1017.0 |
| 20260506034527 | 44 | 302 | 0.0 | 0.0 | 0.00 | 0.38 | 0.37 | 88 | 1017.0 |
| 20260506033026 | 44 | 304 | 0.0 | 0.0 | 0.00 | 0.38 | 0.37 | 87 | 1016.7 |
| 20260506031539 | 45 | 306 | 0.0 | 0.0 | 0.00 | 0.38 | 0.37 | 86 | 1016.4 |
| 20260506030022 | 45 | 307 | 0.0 | 0.0 | 0.00 | 0.38 | 0.37 | 85 | 1016.2 |
| 20260506024522 | 45 | 304 | 0.0 | 3.5 | 0.00 | 0.38 | 0.37 | 85 | 1016.1 |
| 20260506023021 | 45 | 302 | 0.0 | 0.0 | 0.00 | 0.38 | 0.37 | 84 | 1015.8 |
| 20260506021519 | 45 | 315 | 0.0 | 0.0 | 0.00 | 0.38 | 0.37 | 83 | 1015.7 |
| 20260506020019 | 46 | 309 | 0.0 | 0.0 | 0.00 | 0.38 | 0.37 | 82 | 1015.6 |
| 20260506014518 | 46 | 312 | 0.0 | 0.0 | 0.00 | 0.38 | 0.37 | 81 | 1015.6 |
| 20260506013017 | 46 | 306 | 0.0 | 8.7 | 0.00 | 0.38 | 0.37 | 80 | 1015.2 |
| 20260506011516 | 47 | 305 | 0.0 | 5.2 | 0.00 | 0.38 | 0.37 | 80 | 1015.2 |
| 20260506010016 | 47 | 316 | 0.0 | 3.5 | 0.00 | 0.38 | 0.37 | 80 | 1014.9 |
| 20260506004523 | 47 | 346 | 0.0 | 7.0 | 0.00 | 0.38 | 0.37 | 77 | 1014.8 |